Find Tian Lian 2-04

NORAD ID: 63361 Int'l Des: 2025-062 Owner: CAST Country: CN operational
HEOCIRCULARGSO

Current View

Loading 3D Globe...

About Tian Lian 2-04

Description loading...

Upcoming Passes

Passes for default location (London). Set your location on the main map for personalized predictions.

Altitude History

Loading altitude history...

Two-Line Element Set

1 63361U 25062A 26149.44950928 -.00000124 00000-0 00000+0 0 9994
2 63361 4.4216 274.7097 0031651 11.1531 203.0261 1.00271437 4410
Epoch: May 29, 2026 • Age: 19 hours

Current Status

Altitude 35881.4 km
Velocity 3.07 km/s
Sub-Earth Point 2.45°N, 80.4°E
Launch Date Mar 26, 2025
Age 1.1 years
Type other

Technical Details

Classification Payload
Mass 5000.00 kg
Dry Mass 2000.00 kg
Total Mass 5000.00 kg
Length 6.00 m
Diameter 2.50 m
Span 20.00 m
Shape Box + 2 Pan + Dish
Manufacturer CAST
Bus Type DFH-4
Phase Status In Orbit
Owner/State CAST/CN

Most Searched